Flight Track Log - Related Links

Times and Time Zones

All times are in EST time to prevent confusion due to time zone crossing. See the SWA986 flight status page for this flight to view local times or setup timezone preferences in your user account.

Time Position Orientation Groundspeed Altitude Reporting Facility
EST Latitude Longitude Course Direction KTS MPH feet Rate Location/Type
Sun 02:13:20 PM 32.7883 -117.2889 306° West 211 243 5,900  Level Los Angeles Center
Sun 02:14:22 PM 32.8297 -117.3456 311° West 244 281 9,300 3,504 Climbing Los Angeles Center
Sun 02:15:25 PM 32.8844 -117.4219 310° West 293 337 13,200 3,024 Climbing Los Angeles Center
Sun 02:16:27 PM 32.9606 -117.5264 311° West 340 391 15,600 3,000 Climbing Los Angeles Center
Sun 02:17:29 PM 33.0247 -117.6169 310° West 355 409 19,400 3,484 Climbing Los Angeles Center
Sun 02:18:31 PM 33.0919 -117.7136 310° West 371 427 22,800 3,097 Climbing Los Angeles Center
Sun 02:19:33 PM 33.1639 -117.8131 311° West 390 449 25,800 2,710 Climbing Los Angeles Center
Sun 02:20:35 PM 33.2378 -117.9186 310° West 407 468 28,400 2,371 Climbing Los Angeles Center
Sun 02:21:37 PM 33.3150 -118.0289 310° West 426 490 30,700 2,419 Climbing Los Angeles Center
Sun 02:22:39 PM 33.4119 -118.1669 310° West 446 513 33,400 2,565 Climbing Los Angeles Center
Sun 02:23:41 PM 33.4917 -118.2817 310° West 447 514 36,000 2,226 Climbing Los Angeles Center
Sun 02:24:43 PM 33.5700 -118.3956 310° West 441 507 38,000 1,887 Climbing Los Angeles Center
Sun 02:25:45 PM 33.6486 -118.5103 309° West 438 504 39,900 968 Climbing Los Angeles Center
Sun 02:26:47 PM 33.7267 -118.6211 310° West 431 496 40,000 48 Climbing Los Angeles Center
Sun 02:27:50 PM 33.8019 -118.7300 310° West 422 486 40,000  Level Los Angeles Center
Sun 02:28:52 PM 33.8772 -118.8397 310° West 423 487 40,000  Level Los Angeles Center
Sun 02:29:54 PM 33.9519 -118.9497 309° West 424 488 40,000  Level Los Angeles Center
Sun 02:30:56 PM 34.0419 -119.0808 310° West 422 486 40,000  Level Los Angeles Center
Sun 02:31:58 PM 34.1169 -119.1914 309° West 425 489 40,000  Level Los Angeles Center
Sun 02:33:00 PM 34.1917 -119.3017 309° West 425 489 40,000  Level Los Angeles Center
Sun 02:34:02 PM 34.2664 -119.4139 309° West 429 494 40,000  Level Los Angeles Center
Sun 02:35:04 PM 34.3408 -119.5250 309° West 426 490 40,000  Level Los Angeles Center
Sun 02:36:06 PM 34.4164 -119.6358 310° West 428 493 40,000  Level Los Angeles Center
Sun 02:37:08 PM 34.5067 -119.7700 309° West 428 493 40,000  Level Los Angeles Center
Sun 02:38:10 PM 34.5953 -119.8689 317° Northwest 432 497 40,000  Level Los Angeles Center
Sun 02:39:13 PM 34.6853 -119.9631 319° Northwest 437 503 40,000  Level Los Angeles Center
Sun 02:40:15 PM 34.7736 -120.0614 318° Northwest 432 497 40,000  Level Los Angeles Center
Sun 02:41:17 PM 34.8678 -120.1644 318° Northwest 435 501 40,000  Level Los Angeles Center
Sun 02:42:19 PM 34.9572 -120.2622 318° Northwest 434 499 40,000  Level Los Angeles Center
Sun 02:43:21 PM 35.0639 -120.3792 318° Northwest 433 498 40,000  Level Los Angeles Center
Sun 02:44:23 PM 35.1528 -120.4783 318° Northwest 434 499 40,000  Level Los Angeles Center
Sun 02:45:25 PM 35.2414 -120.5761 318° Northwest 434 499 40,000  Level Los Angeles Center
Sun 02:46:27 PM 35.3278 -120.6728 318° Northwest 428 493 40,000  Level Los Angeles Center
Sun 02:47:29 PM 35.4256 -120.7578 325° Northwest 434 499 40,000  Level Los Angeles Center
Sun 02:48:43 PM 35.5211 -120.8450 323° Northwest 430 495 40,000  Level Los Angeles Center
Sun 02:49:46 PM 35.6433 -120.9544 324° Northwest 431 496 40,000  Level Los Angeles Center
Sun 02:50:29 PM 35.7206 -121.0242 324° Northwest 429 494 40,000  Level Oakland Center
Sun 02:51:30 PM 35.8186 -121.1108 324° Northwest 433 498 40,000 -488 Level Oakland Center
Sun 02:52:32 PM 35.9153 -121.1978 324° Northwest 431 496 39,000 -1,790 Descending Oakland Center
Sun 02:53:34 PM 36.0106 -121.2869 323° Northwest 428 493 36,300 -3,024 Descending Oakland Center
Sun 02:54:35 PM 36.1269 -121.3908 324° Northwest 430 495 32,800 -2,878 Descending Oakland Center
Sun 02:55:37 PM 36.2239 -121.4792 324° Northwest 433 498 30,400 -2,244 Descending Oakland Center
Sun 02:56:38 PM 36.3147 -121.5631 323° Northwest 408 470 28,200 -2,098 Descending Oakland Center
Sun 02:57:40 PM 36.4019 -121.6442 323° Northwest 393 452 26,100 -2,032 Descending Oakland Center
Sun 02:58:42 PM 36.4869 -121.7206 324° Northwest 380 437 24,000 -2,091 Descending Oakland Center
Sun 02:59:52 PM 36.5833 -121.8167 321° Northwest 360 414 21,500 -1,662 Descending Northern Cal TRACON
Sun 03:00:52 PM 36.6667 -121.9000 321° Northwest 357 411 20,400 -1,670 Descending Northern Cal TRACON
Sun 03:02:48 PM 36.8322 -121.9889 337° Northwest 337 388 16,600 -1,955 Descending Oakland Center
Sun 03:03:50 PM 36.9247 -122.0125 348° North 338 389 14,600 -1,902 Descending Oakland Center
Sun 03:04:51 PM 37.0139 -122.0375 347° North 329 379 12,700 -1,707 Descending Oakland Center
Sun 03:05:53 PM 37.0750 -122.1089 317° Northwest 307 353 11,100 -1,258 Descending Oakland Center
Sun 03:06:55 PM 37.1228 -122.1922 306° West 296 341 10,100 -878 Descending Oakland Center
Sun 03:07:56 PM 37.1783 -122.2606 316° Northwest 284 327 9,300 -837 Descending Oakland Center
Sun 03:09:47 PM 37.3000 -122.3667 325° Northwest 248 285 7,700 -982 Descending Northern Cal TRACON
Sun 03:10:47 PM 37.3500 -122.4000 332° Northwest 244 281 6,500 -850 Descending Northern Cal TRACON
Sun 03:11:47 PM 37.4000 -122.3500 38° Northeast 235 270 6,000 -250 Descending Northern Cal TRACON
Sun 03:12:47 PM 37.4167 -122.2833 73° East 232 267 6,000 -350 Level Northern Cal TRACON
Sun 03:13:47 PM 37.4333 -122.2000 76° East 230 265 5,300 -850 Descending Northern Cal TRACON
Sun 03:14:47 PM 37.4833 -122.1500 38° Northeast 229 264 4,300 -700 Descending Northern Cal TRACON
Sun 03:15:47 PM 37.5333 -122.1667 345° North 207 238 3,900 -730 Descending Northern Cal TRACON
Sun 03:16:42 PM 37.5500 -122.2333 288° West 197 227 2,900 -1,148 Descending Northern Cal TRACON
Sun 03:17:42 PM 37.5833 -122.2833 310° West 173 199 1,700 -1,200 Descending Northern Cal TRACON
Sun 03:18:12 PM 37.5897 -122.3078 288° West 185 213 1,100 -989 Descending Oakland Center
Sun 03:19:13 PM 37.6100 -122.3519 300° West 165 190 200 -885 Descending Oakland Center
Sun 03:21:00 PM 37.6167 -122.3667 322° Northwest  Level FlightAware Approximate

Login

Don't have an account? Register now (free) for customized features, flight alerts, and more!